Flag for Uruguay Weather past 2 weeks in Minas, Uruguay

Now
54 °F

Scattered clouds.


Feels Like: 53 °F
Forecast: 56 / 67 °F
Wind: 3 mph from Northeast

Location: Capitan Corbeta

Current Time: Jul 30, 2015 at 7:29:06 AM

Latest Report: Jul 30, 2015 at 7:00 AM


Visibility: N/A

Pressure: 30.12 "Hg

Humidity: 94%

Dew point: 52 °F

Location of MinasLocation

Historic Weather in Minas — Graph

°F

Minas temperature yesterday

Maximum temperature yesterday: 73 °F (at 11:00 AM)
Minimum temperature yesterday: 54 °F (at 9:00 PM)
Average temperature yesterday: 61 °F

Past Weeks' High & Low Weather Summary

 TemperatureHumidityPressure
High75 °F (Jul 28, 1:00 PM)100% (Jul 19, 2:00 AM)30.33 "Hg (Jul 19, 2:00 AM)
Low32 °F (Jul 16, 1:00 AM)31% (Jul 15, 2:00 PM)29.83 "Hg (Jul 28, 3:00 PM)
Average51 °F77%30.16 "Hg
* Reported Jul 15 6:00 AM — Jul 30 6:00 AM, Minas, Weather by CustomWeather, © 2015

Note: Actual official high and low records may vary slightly from our data, if they occured in-between our weather recording intervals... More about our weather records

Advertising

Minas weather history for previous 24 hours

 ConditionsComfort  
Time TempWeatherWind HumidityBarometerVisibility
6:00 AM
Thu, Jul 30
52 °FPassing clouds.No wind94%30.12 "HgN/A
5:00 AM52 °FFog.No wind94%30.12 "Hg1 mi
4:00 AM52 °FFog.No wind94%30.15 "Hg1 mi
3:00 AM52 °FFog.3 mph94%30.15 "Hg1 mi
2:00 AM54 °FFog.No wind100%30.15 "Hg0 mi
1:00 AM54 °FFog.3 mph100%30.15 "Hg0 mi
12:00 AM54 °FFog.5 mph100%30.12 "Hg0 mi
11:00 PM
Wed, Jul 29
54 °FFog.7 mph94%30.12 "Hg1 mi
10:00 PM54 °FPartly cloudy.No wind94%30.09 "Hg4 mi
9:00 PM54 °FPartly cloudy.No wind94%30.09 "Hg5 mi
8:00 PM55 °FPartly cloudy.9 mph94%30.12 "HgN/A
7:00 PM55 °FFog.14 mph94%30.09 "Hg3 mi
6:00 PM57 °FFog.6 mph94%30.07 "Hg1 mi
5:00 PM57 °FFog.9 mph88%30.07 "Hg2 mi
4:00 PM57 °FFog.14 mph88%30.01 "Hg2 mi
3:00 PM59 °FFog.10 mph82%30.01 "Hg2 mi
2:00 PM61 °FClear.9 mph83%29.98 "Hg4 mi
1:00 PM61 °FClear.14 mph83%30.01 "Hg4 mi
12:00 PM72 °FClear.14 mph65%30.01 "Hg5 mi
11:00 AM73 °FSunny.14 mph65%29.98 "Hg10 mi
10:00 AM70 °FSunny.7 mph69%29.98 "Hg10 mi
9:00 AM68 °FSunny.12 mph73%29.95 "Hg10 mi
8:00 AM66 °FSunny.3 mph73%29.92 "Hg10 mi
7:00 AM66 °FSunny.6 mph73%29.92 "Hg10 mi
Weather by CustomWeather, © 2015

See weather overviewHow to use our weather pages